TimeCDT,TemperatureF,Dew PointF,Humidity,Sea Level PressureIn,VisibilityMPH,Wind Direction,Wind SpeedMPH,Gust SpeedMPH,PrecipitationIn,Events,Conditions,WindDirDegrees,DateUTC
12:51 AM,45.0,42.1,90,29.96,10.0,NNE,17.3,-,N/A,,Overcast,20,2013-04-03 05:51:00
1:51 AM,45.0,42.1,90,30.00,10.0,North,12.7,19.6,N/A,,Overcast,360,2013-04-03 06:51:00
2:51 AM,44.1,42.1,93,30.04,4.0,North,12.7,-,0.00,Rain,Light Rain,360,2013-04-03 07:51:00
3:51 AM,44.1,41.0,89,30.04,4.0,North,12.7,-,0.00,Rain,Light Rain,350,2013-04-03 08:51:00
4:51 AM,44.1,41.0,89,30.02,10.0,North,12.7,-,0.00,,Overcast,350,2013-04-03 09:51:00
5:12 AM,44.6,39.2,81,30.04,10.0,North,13.8,-,N/A,,Overcast,360,2013-04-03 10:12:00
5:51 AM,44.1,39.9,85,30.05,10.0,North,6.9,-,N/A,,Overcast,350,2013-04-03 10:51:00
6:51 AM,44.1,39.9,85,30.06,10.0,North,10.4,-,N/A,,Overcast,10,2013-04-03 11:51:00
7:51 AM,43.0,39.9,89,30.10,10.0,North,12.7,-,N/A,,Overcast,350,2013-04-03 12:51:00
8:35 AM,42.8,39.2,87,30.12,10.0,North,10.4,-,N/A,,Overcast,350,2013-04-03 13:35:00
8:51 AM,43.0,39.9,89,30.12,10.0,NNW,12.7,-,N/A,,Overcast,340,2013-04-03 13:51:00
10:51 AM,43.0,39.0,86,30.15,10.0,NNW,13.8,-,N/A,,Overcast,330,2013-04-03 15:51:00
11:51 AM,43.0,39.0,86,30.15,10.0,NW,11.5,-,N/A,,Overcast,320,2013-04-03 16:51:00
12:51 PM,44.1,39.9,85,30.16,10.0,NNW,11.5,-,0.00,,Overcast,340,2013-04-03 17:51:00
1:51 PM,45.0,39.9,82,30.15,10.0,NW,11.5,-,0.00,,Overcast,320,2013-04-03 18:51:00
2:51 PM,46.0,39.9,79,30.14,10.0,NNW,10.4,-,N/A,,Overcast,330,2013-04-03 19:51:00
3:51 PM,46.9,39.9,77,30.13,10.0,NNW,11.5,-,N/A,,Overcast,340,2013-04-03 20:51:00
4:51 PM,48.0,39.9,74,30.12,10.0,NW,13.8,-,N/A,,Overcast,320,2013-04-03 21:51:00
5:51 PM,48.9,39.9,71,30.11,10.0,North,11.5,-,N/A,,Overcast,350,2013-04-03 22:51:00
6:20 PM,50.0,39.2,66,30.10,10.0,North,12.7,-,N/A,,Overcast,350,2013-04-03 23:20:00
6:40 PM,48.2,41.0,76,30.10,10.0,North,11.5,-,N/A,,Overcast,350,2013-04-03 23:40:00
6:51 PM,48.9,39.9,71,30.11,10.0,North,12.7,-,N/A,,Overcast,350,2013-04-03 23:51:00
7:51 PM,48.0,39.9,74,30.14,10.0,North,12.7,-,N/A,,Overcast,10,2013-04-04 00:51:00
8:51 PM,46.9,39.9,77,30.17,10.0,North,10.4,-,N/A,,Overcast,360,2013-04-04 01:51:00
9:51 PM,45.0,39.0,80,30.18,10.0,NNE,9.2,-,N/A,,Mostly Cloudy,20,2013-04-04 02:51:00
10:51 PM,45.0,39.0,80,30.21,10.0,North,10.4,-,N/A,,Overcast,10,2013-04-04 03:51:00
11:51 PM,45.0,37.9,76,30.21,10.0,NNE,6.9,-,N/A,,Overcast,20,2013-04-04 04:51:00